DW9783 Weather Reports


Display with metric or nautical units.
time (UTC)temp
F
wind
direction
speed
MPH
gust
MPH
rain 1hr
in
rain 24hr
in
rain mn
in
humidity
%
barometer
mb
20181114214003 43 0 0.0 0.0 0.00 0.03 0.03 96 1029.1
20181114213004 43 0 0.0 0.0 0.00 0.03 0.03 96 1029.1
20181114212004 43 0 0.0 0.0 0.00 0.03 0.03 96 1029.1
20181114211003 43 0 0.0 0.0 0.00 0.03 0.03 96 1029.2
20181114210003 43 0 0.0 0.0 0.00 0.03 0.03 96 1029.3
20181114205004 43 211 0.0 0.0 0.00 0.03 0.03 96 1029.1
20181114204004 42 211 0.0 1.0 0.00 0.03 0.03 95 1029.1
20181114203003 43 0 0.0 0.0 0.00 0.03 0.03 95 1029.1
20181114202003 43 211 0.0 1.0 0.00 0.03 0.03 95 1029.1
20181114201003 43 211 0.0 0.0 0.00 0.03 0.03 95 1029.1
20181114200005 44 0 0.0 0.0 0.00 0.03 0.03 96 1029.1
20181114195003 44 0 0.0 0.0 0.00 0.03 0.03 96 1029.1
20181114194003 44 0 0.0 0.0 0.00 0.03 0.03 96 1029.1
20181114193003 44 0 0.0 0.0 0.00 0.03 0.03 96 1029.0
20181114192003 43 211 0.0 0.0 0.00 0.03 0.03 96 1029.0
20181114191004 43 0 0.0 0.0 0.00 0.03 0.03 96 1028.8
20181114190003 43 0 0.0 0.0 0.00 0.03 0.03 96 1028.8
20181114185003 43 211 0.0 0.0 0.00 0.03 0.03 96 1028.7
20181114184003 43 211 0.0 0.0 0.00 0.03 0.03 95 1028.7
20181114183004 43 211 0.0 0.0 0.00 0.03 0.03 95 1028.5
20181114182003 43 211 0.0 0.0 0.00 0.03 0.03 95 1028.4
20181114181003 43 211 0.0 0.0 0.00 0.03 0.03 95 1028.4
20181114180003 43 211 0.0 1.0 0.00 0.03 0.03 95 1028.4
20181114175004 43 211 0.0 0.0 0.00 0.03 0.03 94 1028.3
20181114174003 43 211 0.0 0.0 0.00 0.03 0.03 94 1028.4
20181114173003 43 0 0.0 0.0 0.00 0.03 0.03 94 1028.4
20181114172003 43 211 0.0 0.0 0.00 0.03 0.03 93 1028.4
20181114171003 43 211 0.0 1.0 0.00 0.03 0.03 94 1028.3
20181114170004 44 211 0.0 1.0 0.00 0.03 0.03 93 1028.3
20181114165003 44 211 0.0 0.0 0.00 0.03 0.03 93 1028.3
20181114164003 44 211 0.0 0.0 0.00 0.03 0.03 93 1028.1
20181114163003 45 211 0.0 1.0 0.00 0.03 0.03 92 1027.9
20181114162004 45 211 0.0 1.0 0.00 0.03 0.03 92 1028.0
20181114161004 45 211 0.0 1.0 0.00 0.03 0.03 91 1028.0
20181114160003 46 211 0.0 0.0 0.00 0.03 0.03 91 1027.9
20181114155003 47 0 0.0 0.0 0.00 0.03 0.03 90 1028.0
20181114154004 47 211 0.0 0.0 0.00 0.03 0.03 90 1028.1
20181114153003 48 211 0.0 1.0 0.00 0.03 0.03 89 1027.8
20181114152003 49 0 0.0 0.0 0.00 0.03 0.03 88 1027.9
20181114151003 49 0 0.0 0.0 0.00 0.03 0.03 87 1028.0
20181114150004 50 211 0.0 0.0 0.00 0.03 0.03 86 1028.0
20181114145003 51 211 0.0 1.0 0.00 0.03 0.03 85 1028.0
20181114144003 51 211 1.0 3.0 0.00 0.03 0.03 85 1028.2
20181114143003 51 205 2.0 3.0 0.00 0.03 0.03 85 1028.2
20181114142004 52 207 2.0 4.0 0.00 0.03 0.03 84 1028.4
20181114141004 52 207 1.0 3.0 0.00 0.03 0.03 84 1028.5
20181114140003 52 204 1.0 3.0 0.00 0.03 0.03 84 1028.4
20181114135003 53 254 1.0 3.0 0.00 0.03 0.03 85 1028.5
20181114134004 53 301 0.0 3.0 0.00 0.03 0.03 85 1028.6
20181114133004 52 331 0.0 2.0 0.00 0.03 0.03 84 1028.7
20181114132003 52 333 0.0 1.0 0.00 0.03 0.03 86 1028.7
20181114131003 52 333 0.0 1.0 0.00 0.03 0.03 85 1028.9
20181114130004 52 333 0.0 2.0 0.00 0.03 0.03 85 1028.9
20181114125004 52 333 0.0 2.0 0.00 0.03 0.03 86 1029.1
20181114124003 52 333 0.0 0.0 0.00 0.03 0.03 88 1029.1
20181114123004 52 333 0.0 0.0 0.00 0.03 0.03 89 1029.2
20181114122003 51 333 0.0 0.0 0.00 0.03 0.03 89 1029.3
20181114121003 51 333 0.0 0.0 0.00 0.03 0.03 90 1029.5
20181114120004 51 333 0.0 0.0 0.00 0.03 0.03 90 1029.5
20181114115004 51 333 0.0 0.0 0.00 0.03 0.03 90 1029.6
20181114114004 51 0 0.0 0.0 0.00 0.03 0.03 91 1029.7
20181114113004 51 333 0.0 0.0 0.00 0.03 0.03 92 1029.8
20181114112003 51 333 0.0 0.0 0.00 0.03 0.03 93 1029.9
20181114111004 50 333 0.0 0.0 0.00 0.03 0.03 94 1030.1
20181114110004 50 333 0.0 0.0 0.00 0.03 0.03 94 1030.2
20181114105003 50 333 0.0 2.0 0.00 0.03 0.03 94 1030.3
20181114104003 50 333 0.0 1.0 0.00 0.03 0.03 94 1030.4
20181114103004 50 333 0.0 0.0 0.00 0.03 0.03 95 1030.5
20181114102004 50 333 1.0 1.0 0.00 0.03 0.03 95 1030.6
20181114101003 49 333 1.0 2.0 0.00 0.03 0.03 95 1030.7
20181114100004 49 6 1.0 3.0 0.00 0.03 0.03 95 1030.8
20181114095005 50 116 0.0 2.0 0.00 0.03 0.03 96 1030.9
20181114094003 50 125 0.0 2.0 0.00 0.03 0.03 96 1030.9
20181114093003 50 125 0.0 1.0 0.00 0.03 0.03 96 1031.0
20181114092003 49 125 0.0 0.0 0.00 0.03 0.03 96 1031.1
20181114091004 49 125 0.0 0.0 0.00 0.03 0.03 96 1031.1
20181114090004 49 125 0.0 1.0 0.00 0.03 0.03 96 1031.1
20181114085003 49 125 0.0 0.0 0.00 0.03 0.03 96 1031.1
20181114084003 49 125 0.0 1.0 0.00 0.03 0.03 96 1031.1
20181114083004 49 125 0.0 0.0 0.00 0.03 0.03 96 1031.0
20181114082004 49 125 0.0 0.0 0.00 0.03 0.03 96 1031.0
20181114081003 49 0 0.0 0.0 0.00 0.03 0.03 96 1031.1
20181114080003 49 125 0.0 0.0 0.01 0.03 0.03 96 1031.1
20181114075004 49 122 1.0 3.0 0.01 0.03 0.03 96 1031.0
20181114074004 49 103 0.0 2.0 0.01 0.03 0.03 96 1031.1
20181114073003 49 99 0.0 0.0 0.02 0.03 0.03 96 1031.0
20181114072003 49 89 0.0 2.0 0.02 0.03 0.03 96 1030.9
20181114071004 49 0 0.0 0.0 0.02 0.03 0.03 97 1031.0
20181114070003 49 0 0.0 0.0 0.02 0.02 0.02 97 1030.8
20181114065003 49 0 0.0 0.0 0.02 0.02 0.02 96 1030.6
20181114064004 49 0 0.0 0.0 0.02 0.02 0.02 96 1030.6
20181114063004 49 0 0.0 0.0 0.01 0.01 0.01 97 1030.5
20181114062004 49 0 0.0 0.0 0.00 0.00 0.00 97 1030.3
20181114061003 49 0 0.0 0.0 0.00 0.00 0.00 97 1030.4
20181114060003 49 84 0.0 1.0 0.00 0.00 0.00 97 1030.2
20181114055003 49 0 0.0 0.0 0.00 0.00 0.00 97 1030.0
20181114054004 49 0 0.0 0.0 0.00 0.00 0.00 96 1030.0
20181114053003 49 0 0.0 0.0 0.00 0.00 0.00 96 1029.9
20181114052003 49 0 0.0 0.0 0.00 0.00 0.00 96 1029.9
20181114051004 49 0 0.0 0.0 0.00 0.00 0.00 96 1029.9
20181114050004 49 0 0.0 0.0 0.00 0.00 0.00 96 1029.9
20181114045003 49 0 0.0 0.0 0.00 0.00 0.00 97 1029.8
20181114044004 48 84 0.0 1.0 0.00 0.00 0.00 97 1029.8
20181114043004 48 0 0.0 0.0 0.00 0.00 0.00 97 1029.7
20181114042004 48 0 0.0 0.0 0.00 0.00 0.00 97 1029.7
20181114041004 48 0 0.0 0.0 0.00 0.00 0.00 96 1029.7
20181114040004 48 0 0.0 0.0 0.00 0.00 0.00 96 1029.7
20181114035003 48 84 0.0 0.0 0.00 0.00 0.00 96 1029.6
20181114034003 48 86 0.0 2.0 0.00 0.00 0.00 96 1029.6
20181114033004 48 91 0.0 1.0 0.00 0.00 0.00 96 1029.6
20181114032003 48 0 0.0 0.0 0.00 0.00 0.00 96 1029.5
20181114031003 48 91 0.0 0.0 0.00 0.00 0.00 96 1029.6
20181114030004 48 0 0.0 0.0 0.00 0.00 0.00 96 1029.6
20181114025004 48 91 0.0 0.0 0.00 0.00 0.00 96 1029.6
20181114024003 48 91 0.0 0.0 0.00 0.00 0.00 96 1029.4
20181114023003 48 91 0.0 1.0 0.00 0.00 0.00 96 1029.4
20181114022004 48 91 0.0 0.0 0.00 0.00 0.00 96 1029.4
20181114021004 48 91 0.0 1.0 0.00 0.00 0.00 96 1029.4
20181114020004 48 91 0.0 1.0 0.00 0.00 0.00 96 1029.3
20181114015004 48 92 0.0 1.0 0.00 0.00 0.00 96 1029.1
20181114014004 48 92 0.0 1.0 0.00 0.00 0.00 96 1029.1
20181114013004 48 92 0.0 0.0 0.00 0.00 0.00 96 1029.1
20181114012003 48 92 1.0 2.0 0.00 0.00 0.00 96 1029.1
20181114011004 48 85 0.0 2.0 0.00 0.00 0.00 96 1029.0
20181114010004 48 80 0.0 1.0 0.00 0.00 0.00 96 1029.0
20181114005003 48 120 0.0 1.0 0.00 0.00 0.00 96 1029.1
20181114004004 48 130 0.0 1.0 0.00 0.00 0.00 96 1029.1
20181114003004 48 124 0.0 1.0 0.00 0.00 0.00 96 1029.2
20181114002003 48 0 0.0 0.0 0.00 0.00 0.00 96 1029.2
20181114001003 48 124 0.0 1.0 0.00 0.00 0.00 96 1029.2
20181114000004 48 124 0.0 0.0 0.00 0.00 0.00 96 1029.1
20181113235003 48 124 0.0 1.0 0.00 0.00 0.00 96 1029.0
20181113234003 48 124 0.0 1.0 0.00 0.00 0.00 96 1029.0
20181113233004 48 124 0.0 0.0 0.00 0.00 0.00 96 1028.9
20181113232003 48 0 0.0 0.0 0.00 0.00 0.00 96 1028.8
20181113231003 48 132 0.0 1.0 0.00 0.00 0.00 96 1028.8
20181113225004 48 140 0.0 1.0 0.00 0.00 0.00 96 1028.6
20181113224106 48 140 0.0 1.0 0.00 0.00 0.00 95 1028.6
20181113223106 48 140 0.0 2.0 0.00 0.00 0.00 95 1028.6
20181113222004 48 117 0.0 3.0 0.00 0.00 0.00 95 1028.5
20181113221005 49 108 1.0 3.0 0.00 0.00 0.00 95 1028.4
20181113220003 49 75 0.0 2.0 0.00 0.00 0.00 95 1028.5
20181113215004 49 0 0.0 0.0 0.00 0.00 0.00 95 1028.5